Regional Weather Roundup
Issued by NWS Bismarck, ND

Home | Current Version | Previous Version | Text Only | Print | Product List | Glossary On
Versions: 1 2 3 4 5 6 7 8 9 10 11 12 13 14 15 16 17 18 19 20 21 22 23 24 25 26 27 28 29 30 31 32 33 34 35 36 37 38 39 40 41 42 43 44 45 46 47 48 49 50
000
ASUS43 KBIS 192020
RWRBIS

NWR BROADCAST TEXT
NATIONAL WEATHER SERVICE BISMARCK ND
300 PM CDT SUN OCT 19 2014

NOTE: "FAIR" INDICATES FEW OR NO CLOUDS BELOW 12,000 FEET WITH NO
SIGNIFICANT WEATHER AND/OR OBSTRUCTIONS TO VISIBILITY.


CITY           SKY/WX    TMP DP  RH WIND       PRES   REMARKS
WILLISTON      SUNNY     67  37  33 CALM      29.99F
MINOT          SUNNY     69  35  28 NW14      29.93F
MINOT AFB      SUNNY     67  38  34 NW13      29.92F
BISMARCK       SUNNY     72  40  31 NW15G22   29.94F
DICKINSON      SUNNY     69  40  34 N8        29.99S
GARRISON         N/A     70  39  32 NW16G23   29.95S
HETTINGER ARPT SUNNY     70  37  29 NW13G24   30.01S
JAMESTOWN      SUNNY     69  39  33 NW16G25   29.87S
BEACH            N/A     66  39  37 NW9       30.02F
CARRINGTON     FAIR      66  37  34 NW23      29.90R
CROSBY         FAIR      68  34  28 CALM      29.97F
HARVEY         FAIR      66  39  37 NW15G22   29.92R
HAZEN          FAIR      68  39  34 NW15      29.97S
LINTON         FAIR      72  41  33 N14G23    29.92F
MANDAN         FAIR      70  39  32 NW16      29.96S
OAKES            N/A     72  41  33 NW22G28   29.86S
RUGBY          FAIR      64  41  42 NW17      29.91S
STANLEY        FAIR      66  32  28 N14       29.97F
TIOGA          FAIR      68  32  26 N6        30.01F
$$

CITY           SKY/WX    TMP DP  RH WIND       PRES   REMARKS
GRAND FORKS    SUNNY     66  43  43 N17       29.82R
GRAND FORKS AF SUNNY     67  43  40 N16       29.83R
DEVILS LAKE    SUNNY     64  43  45 NW16G22   29.87R
FARGO          SUNNY     70  40  33 NW18      29.80F
CANDO          FAIR      66  37  34 N22G30    29.89R
CAVALIER       FAIR      66  41  39 NW14G21   29.82F
GRAFTON        FAIR      64  41  42 N16G24    29.82S
GWINNER        CLEAR     73  41  31 NW21      29.86S
LANGDON        FAIR      64  39  39 NW20G28   29.85S
ROLLA          FAIR      64  37  36 NW22G35   29.89F
WALHALLA         N/A     66  41  39 NW13      29.82F
$$

CITY           SKY/WX    TMP DP  RH WIND       PRES   REMARKS
ABERDEEN       SUNNY     76  39  26 N20       29.87F
MOBRIDGE       SUNNY     77  41  27 NW16      29.90F
BUFFALO          N/A     70  37  29 NW14G25   29.96F
RAPID CITY     SUNNY     73  40  30 NE6       30.03F
GLASGOW        SUNNY     65  41  41 CALM      29.98F
SIDNEY         SUNNY     70  43  37 CALM      30.01F
WOLF POINT     SUNNY     67  44  43 CALM      29.99F
GLENDIVE       SUNNY     70  37  30 CALM      30.02S
MILES CITY     SUNNY     69  39  33 CALM      30.01F
BAKER          SUNNY     69  37  30 NW13      30.04S
$$

CITY           SKY/WX    TMP DP  RH WIND       PRES   REMARKS
BILLINGS       SUNNY     67  34  29 S6        30.02F
GREAT FALLS    SUNNY     72  35  25 SW20      29.93F
REGINA         MOSUNNY   68  39  34 W9        29.95S
ESTEVAN        MOSUNNY   68  36  30 NW3       29.95F
$$



USA.gov is the U.S. government's official web portal to all federal, state and local government web resources and services.